sat.trackr.live / text

‹ back to catalog

COSMOS 2558

NORAD 53323 · 2022-089A

PAYLOAD ACTIVE UNKNOWN

§ Identity

Operator
Country
CIS
Launch date
2022-08-01
Launch site
PLMSC
Launch vehicle
Mass (kg)
RCS (m²)

External: N2YO · Heavens-Above · Gunter

§ Orbital elements

Epoch: 2026-05-25T04:16:35.207328Z

Period
91.70 min
Inclination
97.2249°
Eccentricity
0.0002238
Mean motion
15.70364540 rev/d
Perigee alt
356.3 km
Apogee alt
359.4 km
Semi-major
6,736.0 km
B*
7.1874e-4
RAAN
248.3880°
Arg perigee
155.3148°
Mean anomaly
204.8222°
Rev number
21,421

§ Raw data

COSMOS 25581 53323U 22089A   26145.17818527  .00088202  00000+0  71874-3 0  99932 53323  97.2249 248.3880 0002238 155.3148 204.8222 15.70364540214211

JSON: /api/v1/satellites/53323 · /tle

For live sub-satellite position, see the globe view (requires WebGL).

§ Visibility from observer

Set your observer location to see the next 7 days of passes ≥ 10°. The values pass through the URL so the page stays shareable.

No JS? Fill the form by hand. The geolocation button needs JavaScript.

§ Radio — SatNOGS DB

ModeDescriptionDownlinkUplink
FM S-band telemetry 2.284 GHz
BPSK S-band telemetry 2.266 GHz

2 transmitters · refreshed weekly from db.satnogs.org